Weather History for Pellston, MI

Change the Weather History Date:

Sunday, May 26, 2013

  Actual Average Record
Temperature  
Mean Temperature 48 °F -  
Max Temperature 68 °F 67 °F 86 °F (1965)
Min Temperature 30 °F 42 °F 20 °F (1969)
Degree Days  
Heating Degree Days 17    
Moisture  
Dew Point 30 °F    
Average Humidity 55    
Maximum Humidity 93    
Minimum Humidity 19    
Precipitation  
Precipitation 0.00 in - - ()
Sea Level Pressure  
Sea Level Pressure 30.33 in    
Wind  
Wind Speed 2 mph (East)    
Max Wind Speed 9 mph    
Max Gust Speed -    
Visibility 10 miles    
Events      
Averages and records for this station are not official NWS values.
T = Trace of Precipitation, MM = Missing Value Source: NWS Daily Summary

Daily Weather History Graph

Daily Weather History Graph

Search for Another Location

Airport:

Trip Planner

Search our weather history database for the weather conditions in past years. The results will help you decide how hot, cold, wet, or windy it might be!

Date:

Astronomy

May. 26, 2013 Rise Set
Actual Time 5:57 AM EDT 9:15 PM EDT
Civil Twilight 5:21 AM EDT 9:51 PM EDT
Nautical Twilight 4:34 AM EDT 10:39 PM EDT
Astronomical Twilight 3:35 AM EDT 11:38 PM EDT
Moon 11:00 PM EDT (5/26) 7:26 AM EDT (5/26)
Length of Visible Light 16h 30m
Length of Day
15h 18m
Waning Gibbous, 97% of the Moon is Illuminated
May 26
Waning Gibbous
May 31
Last Quarter
Jun 8
New
Jun 16
First Quarter
Jun 23
Full

Hourly Weather History & Observations

Time (EDT) Temp. Windchill Dew Point Humidity Pressure Visibility Wind Dir Wind Speed Gust Speed Precip Events Conditions
12:54 AM 35.1 °F - 32.0 °F 89% 30.35 in 10.0 mi Calm Calm - N/A   Clear
1:54 AM 35.1 °F - 32.0 °F 89% 30.35 in 10.0 mi Calm Calm - N/A   Clear
2:54 AM 33.1 °F - 30.9 °F 92% 30.35 in 10.0 mi Calm Calm - N/A   Clear
3:54 AM 33.1 °F 30.0 °F 30.0 °F 89% 30.36 in 10.0 mi WNW 3.5 mph - N/A   Clear
4:54 AM 30.9 °F - 28.9 °F 92% 30.35 in 10.0 mi Calm Calm - N/A   Clear
5:54 AM 30.9 °F - 28.0 °F 89% 30.36 in 10.0 mi Calm Calm - N/A   Clear
6:54 AM 34.0 °F - 30.9 °F 89% 30.39 in 10.0 mi Calm Calm - N/A   Clear
7:54 AM 43.0 °F - 37.9 °F 82% 30.38 in 10.0 mi Calm Calm - N/A   Clear
8:54 AM 50.0 °F - 36.0 °F 59% 30.40 in 10.0 mi Calm Calm - N/A   Clear
9:54 AM 55.9 °F - 33.1 °F 42% 30.40 in 10.0 mi SSE 6.9 mph - N/A   Clear
10:54 AM 59.0 °F - 30.0 °F 33% 30.38 in 10.0 mi Variable 3.5 mph - N/A   Clear
11:54 AM 61.0 °F - 32.0 °F 34% 30.38 in 10.0 mi Calm Calm - N/A   Clear
12:54 PM 63.0 °F - 27.0 °F 26% 30.36 in 10.0 mi East 9.2 mph - N/A   Clear
1:54 PM 64.9 °F - 26.1 °F 23% 30.35 in 10.0 mi NE 6.9 mph - N/A   Clear
2:54 PM 64.9 °F - 25.0 °F 22% 30.34 in 10.0 mi East 8.1 mph - N/A   Clear
3:54 PM 66.0 °F - 21.9 °F 19% 30.32 in 10.0 mi ESE 8.1 mph - N/A   Clear
4:54 PM 66.9 °F - 26.1 °F 21% 30.30 in 10.0 mi East 8.1 mph - N/A   Clear
5:54 PM 66.0 °F - 26.1 °F 22% 30.28 in 10.0 mi Calm Calm - N/A   Clear
6:54 PM 66.0 °F - 27.0 °F 23% 30.27 in 10.0 mi South 5.8 mph - N/A   Clear
7:54 PM 64.9 °F - 28.0 °F 25% 30.26 in 10.0 mi ENE 5.8 mph - N/A   Clear
8:54 PM 61.0 °F - 30.9 °F 32% 30.25 in 10.0 mi North 3.5 mph - N/A   Clear
9:54 PM 50.0 °F - 35.1 °F 57% 30.26 in 10.0 mi Calm Calm - N/A   Clear
10:54 PM 44.1 °F - 37.0 °F 76% 30.27 in 10.0 mi Calm Calm - N/A   Clear
11:54 PM 39.0 °F - 37.0 °F 93% 30.28 in 10.0 mi Calm Calm - N/A   Clear